{"data":{"norad_id":56826,"epoch":"2026-09-20T21:55:02.718624Z","epoch_age_seconds":81896,"freshness":"FRESH","line1":"1 56826U 23079D   26263.91322591  .00000156  00000+0  15185-4 0  9994","line2":"2 56826  42.9997  84.4754 0000952 276.7200  83.3544 15.27576760183051","mean_motion":15.2757676,"eccentricity":9.52e-5,"inclination_deg":42.9997,"raan_deg":84.4754,"arg_perigee_deg":276.72,"mean_anomaly_deg":83.3544,"bstar":1.5185e-5,"rev_number":18305,"period_min":94.266948654024,"perigee_km":482.40561194244,"apogee_km":483.71198362233,"semimajor_km":6861.1957977824,"source":"CELESTRAK","updated_at":"2026-09-21T09:00:33.515266Z"}}